Date,TemperatureHighF,TemperatureAvgF,TemperatureLowF,DewpointHighF,DewpointAvgF,DewpointLowF,HumidityHigh,HumidityAvg,HumidityLow,PressureMaxIn,PressureMinIn,WindSpeedMaxMPH,WindSpeedAvgMPH,GustSpeedMaxMPH,PrecipitationSumIn
2013-4-13,40.0,37.7,36.0,32.0,29.1,27.0,80,72,60,29.96,29.81,10,6,22,3.69
2013-4-14,38.0,35.0,29.0,31.0,29.1,27.0,92,79,68,30.08,29.96,6,1,11,3.69
2013-4-17,43.0,43.0,43.0,41.0,41.0,41.0,91,91,91,30.04,30.04,8,8,19,0.74
2013-4-18,58.0,45.6,43.0,44.0,43.6,41.0,93,91,91,30.04,29.56,8,5,19,0.92
2013-4-19,58.0,44.7,35.0,57.0,39.5,30.0,97,83,67,29.72,29.33,14,8,31,0.76
2013-4-20,37.0,32.9,28.0,31.0,22.4,16.0,93,66,52,30.41,29.72,11,6,21,0.01
2013-4-21,41.0,29.1,23.0,28.0,23.9,22.0,95,82,52,30.59,30.41,4,1,11,0.00
2013-4-22,61.0,54.4,48.0,36.0,28.1,18.0,60,39,19,30.19,30.17,6,2,11,0.00
2013-4-23,68.0,55.5,44.0,54.0,41.9,33.0,95,62,42,30.18,29.82,9,4,23,0.21
2013-4-24,54.0,54.0,54.0,53.0,53.0,53.0,95,95,95,29.82,29.82,0,0,3,0.21
2013-4-25,48.0,32.9,30.0,36.0,27.9,27.0,87,82,50,30.14,30.09,9,1,19,0.02
2013-4-27,69.0,63.1,51.0,44.0,37.7,33.0,75,41,27,30.29,30.10,7,4,15,0.00
2013-4-28,58.0,53.0,50.0,53.0,44.4,-99.9,97,77,49,30.11,29.83,6,1,13,0.34
2013-4-29,69.0,58.8,52.0,55.0,52.8,51.0,98,83,57,29.92,29.83,3,1,10,0.09
2013-4-30,72.0,60.9,53.0,57.0,54.4,51.0,95,81,59,30.06,29.91,12,3,20,0.19
2013-5-1,81.0,66.0,52.0,59.0,55.2,51.0,96,71,44,30.20,30.05,8,3,15,0.03
2013-5-10,65.0,51.8,41.0,61.0,48.4,-99.9,97,91,86,29.87,29.75,8,4,22,0.28
2013-5-11,56.0,48.7,41.0,45.0,42.8,39.0,96,82,66,29.86,29.77,8,2,14,0.03
2013-5-12,56.0,48.4,31.0,45.0,35.8,-99.9,85,64,54,30.06,29.77,12,4,25,0.00
2013-5-13,49.0,35.9,29.0,28.0,25.9,25.0,92,70,38,30.15,30.06,7,2,17,0.00
2013-5-14,77.0,67.4,56.0,53.0,49.3,46.0,75,54,43,29.77,29.72,3,1,10,0.00
2013-5-15,56.0,55.5,55.0,51.0,49.2,48.0,82,79,75,29.74,29.62,1,0,6,0.00
2013-5-19,86.0,78.1,70.0,64.0,62.9,62.0,76,61,46,29.93,29.89,4,2,11,0.00
2013-5-20,89.0,77.1,63.0,70.0,64.2,59.0,94,68,46,29.93,29.78,6,3,16,0.00
2013-5-21,89.0,83.8,70.0,65.0,63.5,59.0,82,52,46,29.78,29.72,8,4,17,0.00
2013-5-23,53.0,44.7,42.0,51.0,42.7,40.0,94,93,92,30.14,29.81,9,6,21,0.12
2013-5-24,54.0,45.0,39.0,43.0,37.4,34.0,96,76,51,30.35,30.13,8,4,17,0.01
2013-5-25,62.0,51.5,38.0,40.0,38.1,35.0,95,64,39,30.34,30.28,6,2,13,0.00
2013-5-26,46.0,40.6,40.0,40.0,38.3,38.0,93,92,78,30.32,30.29,0,0,1,0.00
2013-5-27,60.0,52.6,50.0,50.0,48.0,43.0,96,85,53,30.17,30.01,5,2,13,0.34
2013-5-28,72.0,60.7,51.0,70.0,59.4,50.0,98,96,89,30.01,29.80,4,1,16,1.24
2013-5-29,80.0,71.8,63.0,68.0,65.3,61.0,97,81,59,30.01,29.82,7,2,16,0.07
2013-5-30,83.0,74.3,62.0,69.0,66.2,61.0,99,78,63,30.06,30.00,6,3,15,0.02
2013-5-31,83.0,83.0,83.0,69.0,69.0,69.0,63,63,63,30.03,30.03,5,5,13,0.00
2013-6-1,83.0,74.9,64.0,69.0,65.7,63.0,98,74,63,30.03,29.75,5,4,14,0.59
2013-6-2,71.0,71.0,71.0,64.0,62.8,-99.9,78,78,78,29.76,29.76,1,1,8,0.59
2013-6-3,71.0,62.8,47.0,64.0,49.9,37.0,89,64,44,30.08,29.76,5,2,16,0.02
2013-6-4,51.0,47.0,46.0,48.0,45.5,44.0,95,94,89,30.12,30.08,0,0,0,0.02
2013-6-10,73.0,68.8,64.0,67.0,65.6,63.0,98,90,80,29.80,29.73,3,1,6,0.02
2013-6-11,78.0,69.7,63.0,68.0,64.3,62.0,98,84,63,29.89,29.77,6,2,16,0.02
2013-6-12,74.0,68.0,59.0,69.0,64.6,58.0,98,89,78,29.92,29.70,5,0,12,0.01
2013-6-13,65.0,64.4,64.0,64.0,63.4,63.0,97,97,97,29.63,29.59,1,1,7,0.88
2013-6-14,74.0,68.7,57.0,57.0,53.2,48.0,91,60,41,30.06,30.03,4,2,12,0.03
2013-6-15,78.0,65.4,54.0,63.0,58.5,53.0,98,80,53,30.08,29.93,4,1,11,0.03
2013-6-16,80.0,69.4,62.0,66.0,61.7,55.0,98,79,44,29.93,29.77,7,3,17,0.51
2013-6-17,84.0,70.4,56.0,64.0,58.5,55.0,95,70,40,29.93,29.83,4,1,16,0.01
2013-6-18,70.0,62.4,54.0,58.0,51.6,43.0,96,71,43,30.08,29.90,7,3,18,0.04
2013-6-19,75.0,60.3,46.0,56.0,48.0,42.0,89,66,42,30.17,30.07,3,1,8,0.01
2013-6-20,80.0,64.3,53.0,57.0,53.1,50.0,93,70,41,30.22,30.15,4,1,10,0.00
2013-6-22,85.0,80.5,76.0,74.0,70.8,69.0,83,73,63,30.08,29.99,6,2,17,0.00
2013-6-23,88.0,78.5,68.0,71.0,68.4,67.0,97,73,51,30.06,29.97,5,2,13,0.00
2013-6-24,87.0,76.2,66.0,71.0,68.3,64.0,96,78,57,30.07,29.93,5,2,13,0.27
2013-6-25,82.0,71.8,66.0,72.0,68.1,64.0,97,89,70,29.99,29.84,6,1,19,0.51
2013-6-26,83.0,73.5,64.0,72.0,67.7,63.0,98,83,66,29.88,29.76,3,1,11,0.06
2013-6-27,84.0,71.6,65.0,72.0,68.3,64.0,98,90,62,29.77,29.66,3,1,9,1.92
2013-6-28,77.0,67.5,64.0,67.0,64.3,62.0,99,90,65,29.65,29.52,6,2,12,0.65
2013-6-29,74.0,67.1,63.0,63.0,61.8,58.0,97,84,68,29.73,29.55,6,2,13,0.04
2013-6-30,77.0,76.2,75.0,61.0,60.0,59.0,58,57,56,29.87,29.86,3,3,14,0.01
2013-7-1,67.0,63.4,59.0,60.0,57.6,56.0,93,83,69,30.07,30.03,5,1,12,0.23
2013-7-2,74.0,65.5,57.0,64.0,59.5,54.0,92,82,68,30.07,30.02,4,1,10,0.18
2013-7-3,81.0,67.3,60.0,69.0,63.2,59.0,96,87,64,30.10,30.04,4,1,11,0.00
2013-7-16,90.0,88.1,83.0,79.0,77.7,77.0,84,72,66,30.29,30.26,1,1,4,2.28
2013-7-17,88.0,85.2,79.0,78.0,76.8,75.0,92,77,69,30.22,30.16,5,1,13,0.00
2013-7-18,91.0,81.3,71.0,78.0,73.6,70.0,99,79,58,30.18,29.97,4,1,15,0.00
2013-7-19,91.0,82.0,76.0,76.0,73.3,68.0,91,77,54,29.98,29.76,9,3,22,0.03
2013-7-20,82.0,72.4,68.0,67.0,58.6,-99.9,93,69,49,29.93,29.85,6,2,14,0.29
2013-7-21,83.0,71.5,61.0,67.0,61.9,55.0,95,73,51,30.01,29.92,2,1,8,0.00
2013-7-22,82.0,72.9,66.0,69.0,65.9,63.0,94,80,58,29.97,29.77,5,1,10,0.02
2013-7-23,80.0,69.6,60.0,73.0,65.1,51.0,98,86,66,29.88,29.69,9,3,30,0.59
2013-7-24,72.0,62.6,54.0,57.0,52.2,47.0,91,69,53,30.05,29.88,5,2,13,0.01
2013-7-25,77.0,63.6,50.0,58.0,53.6,49.0,98,73,45,30.11,30.05,2,0,7,0.01
2013-7-26,78.0,67.0,56.0,62.0,58.6,55.0,100,76,52,30.10,29.91,5,1,15,0.01
2013-7-27,72.0,65.3,55.0,66.0,61.4,52.0,93,88,72,29.92,29.74,5,2,14,0.11
2013-7-28,64.0,56.3,49.0,57.0,52.4,48.0,97,87,74,29.98,29.83,7,1,15,0.27
2013-7-29,68.0,58.9,55.0,57.0,54.3,52.0,95,85,68,30.13,29.97,5,1,13,0.01
2013-7-30,79.0,71.2,52.0,64.0,59.7,51.0,99,68,48,30.24,30.13,3,0,6,0.01
2013-7-31,74.0,67.0,62.0,67.0,64.4,61.0,98,92,78,30.14,29.91,3,0,12,0.54
2013-8-1,66.0,66.0,66.0,65.0,65.0,65.0,96,96,96,29.91,29.91,2,2,5,0.00
2013-8-2,70.0,66.7,63.0,64.0,62.9,62.0,98,88,76,29.91,29.85,3,1,11,2.57
2013-8-3,75.0,67.1,56.0,64.0,58.0,53.0,99,75,50,30.06,29.90,6,2,14,2.57
2013-8-4,72.0,62.4,55.0,59.0,54.7,52.0,93,77,54,30.17,30.06,7,2,16,0.00
2013-8-5,70.0,63.2,54.0,59.0,54.8,51.0,92,75,55,30.13,29.98,3,0,8,0.00
2013-8-6,76.0,67.6,62.0,69.0,63.5,57.0,98,87,71,29.98,29.90,4,1,12,0.26
2013-8-7,82.0,70.3,64.0,72.0,66.6,62.0,99,89,69,29.92,29.83,9,1,19,0.20
2013-8-8,76.0,69.4,64.0,70.0,62.9,58.0,96,81,60,30.03,29.91,4,2,11,0.01
2013-8-9,78.0,68.5,57.0,63.0,58.6,56.0,97,73,51,30.01,29.96,4,1,12,0.00
2013-8-10,76.0,67.8,60.0,62.0,59.6,57.0,96,77,55,30.15,30.02,3,1,9,0.00
2013-8-11,77.0,67.2,57.0,63.0,59.5,56.0,97,78,56,30.13,30.05,5,1,13,0.00
2013-8-12,70.0,65.6,63.0,68.0,63.4,60.0,99,93,79,30.07,29.86,3,0,13,0.86
2013-8-13,65.0,59.4,54.0,64.0,51.9,-99.9,99,80,54,30.05,29.85,9,5,17,0.26
2013-8-14,68.0,55.7,48.0,55.0,46.3,-99.9,94,77,49,30.17,30.05,5,2,15,0.00
2013-8-15,53.0,51.2,50.0,52.0,50.2,49.0,97,97,96,30.16,30.15,0,0,0,0.00
2013-8-18,75.0,66.9,62.0,66.0,61.6,59.0,92,83,70,30.15,30.12,0,0,2,0.00
2013-8-19,81.0,64.7,56.0,63.0,49.0,-99.9,98,76,41,30.14,30.05,5,1,11,0.01
2013-8-20,84.0,67.4,58.0,67.0,59.6,-99.9,99,82,54,30.16,30.08,4,1,9,0.01
2013-8-24,82.0,72.1,64.0,66.0,60.7,58.0,82,68,48,30.29,30.26,0,0,3,0.00
2013-8-25,85.0,70.6,57.0,67.0,60.2,-99.9,98,74,49,30.31,30.16,5,1,12,0.00
2013-8-26,85.0,76.1,68.0,74.0,67.6,62.0,95,75,65,30.18,29.99,5,2,14,0.01
2013-8-27,81.0,73.6,70.0,75.0,71.3,68.0,97,93,80,30.01,29.91,9,1,19,0.18
2013-8-28,82.0,76.7,68.0,73.0,71.6,67.0,97,85,74,30.02,29.91,4,2,10,2.68
2013-8-29,86.0,74.5,65.0,75.0,68.7,65.0,99,84,57,30.10,30.02,2,0,6,0.01
2013-8-30,85.0,74.9,65.0,73.0,69.1,65.0,99,84,61,30.02,29.77,5,1,15,0.01
2013-8-31,78.0,72.9,66.0,73.0,68.3,65.0,97,87,70,29.87,29.76,4,1,10,0.01
2013-9-1,81.0,70.5,67.0,73.0,65.8,-99.9,98,88,75,29.87,29.73,3,0,8,0.01
2013-9-2,72.0,67.2,59.0,71.0,62.1,53.0,97,84,67,29.93,29.74,9,4,17,0.01
2013-9-3,75.0,62.3,56.0,59.0,54.6,52.0,92,77,55,30.03,29.92,6,3,15,0.00
2013-9-4,78.0,66.2,53.0,64.0,58.6,52.0,98,78,55,30.09,30.02,6,2,15,0.01
2013-9-5,70.0,60.7,52.0,63.0,52.5,48.0,92,76,49,30.26,30.08,5,2,13,0.01
2013-9-6,75.0,58.6,46.0,53.0,48.7,45.0,98,74,42,30.28,30.15,3,1,10,0.00
2013-9-7,77.0,70.8,56.0,70.0,65.7,51.0,97,84,69,30.02,29.91,5,1,10,0.08
2013-9-8,74.0,67.2,57.0,67.0,58.2,-99.9,95,76,52,30.10,29.94,6,2,15,0.03
2013-9-9,75.0,64.6,56.0,71.0,60.8,51.0,96,87,80,30.08,29.91,4,1,9,0.11
2013-9-10,91.0,78.6,68.0,74.0,70.0,67.0,98,78,46,30.03,29.89,5,2,14,0.01
2013-9-11,88.0,75.6,67.0,75.0,69.7,66.0,99,84,63,30.04,29.93,4,1,10,0.66
2013-9-12,74.0,66.5,56.0,67.0,60.8,48.0,100,84,52,29.97,29.86,11,3,31,0.66
2013-9-13,56.0,52.6,43.0,50.0,45.4,42.0,95,77,59,30.14,29.96,9,5,20,0.02
2013-9-14,67.0,51.4,38.0,51.0,43.3,37.0,99,77,45,30.19,30.09,4,1,8,0.01
2013-9-15,61.0,50.8,46.0,54.0,47.8,-99.9,97,93,76,30.13,30.07,2,0,6,0.11
2013-9-16,60.0,54.6,46.0,54.0,49.7,43.0,97,85,58,30.38,30.13,5,2,15,0.05
2013-9-17,68.0,51.1,38.0,53.0,44.8,37.0,98,81,52,30.40,30.22,3,0,9,0.01
2013-9-18,62.0,49.5,47.0,54.0,48.6,45.0,99,97,92,30.23,30.05,1,0,4,0.01
2013-9-19,79.0,67.5,58.0,70.0,63.1,57.0,98,87,71,30.06,29.93,4,1,11,0.00
2013-9-20,77.0,70.7,67.0,71.0,68.0,65.0,98,92,77,29.93,29.74,5,2,14,0.23
2013-9-21,67.0,60.8,54.0,66.0,55.3,45.0,98,83,56,29.88,29.68,8,3,21,0.17
2013-9-22,56.0,50.4,43.0,45.0,41.7,-99.9,95,74,63,30.08,29.88,7,3,15,0.01
2013-9-23,63.0,48.9,39.0,49.0,43.4,38.0,98,83,55,30.19,30.08,3,0,7,0.01
2013-9-24,70.0,53.7,42.0,52.0,46.8,41.0,98,80,52,30.15,30.00,3,0,9,0.01
2013-9-25,71.0,55.8,45.0,55.0,48.7,44.0,99,81,44,30.02,29.96,2,0,9,0.01
2013-9-26,78.0,57.9,44.0,57.0,50.3,43.0,99,80,42,30.15,30.00,2,0,7,0.01
2013-9-27,68.0,52.5,46.0,60.0,49.9,45.0,98,92,69,30.24,30.14,3,0,8,0.01
2013-9-28,76.0,64.4,53.0,61.0,56.9,52.0,98,79,52,30.20,30.02,6,2,12,0.01
2013-9-29,62.0,59.0,58.0,61.0,55.2,-99.9,98,90,81,30.03,29.96,4,0,9,0.12
2013-9-30,72.0,60.6,52.0,57.0,55.3,51.0,98,85,53,30.02,29.93,3,0,8,0.01
2013-10-1,67.0,61.3,52.0,61.0,58.9,51.0,97,92,81,29.96,29.94,1,0,5,0.01
2013-10-2,78.0,65.0,53.0,61.0,54.8,42.0,98,75,28,30.09,29.95,4,1,9,0.01
2013-10-3,77.0,63.1,52.0,68.0,58.5,51.0,96,85,72,30.07,29.96,5,2,13,0.01
2013-10-4,78.0,69.4,63.0,69.0,65.9,62.0,98,89,72,30.03,29.95,3,1,10,0.01
2013-10-5,72.0,67.4,64.0,69.0,65.7,63.0,99,94,87,30.05,29.87,5,1,11,0.22
2013-10-6,69.0,64.6,54.0,68.0,63.0,52.0,99,94,85,29.87,29.64,5,2,15,0.25
2013-10-7,58.0,50.4,44.0,53.0,47.0,42.0,98,89,64,30.10,29.68,7,2,19,0.06